Location: Boone Canyon
(38.3180°N, 119.2504°W)
Time: 18:20:35
(UTC+00:00)

Landsat 5 - Pass Details

Date: 18 September 2020
Orbit: 528 x 655 km, 98.2° (Epoch: 19 October)

Event Time Altitude Azimuth Distance (km) Brightness Sun altitude
Rises 12:26:36 0° 190° (S) 2,950 6.8 -15.4°
Reaches altitude 10° 12:29:00 10° 200° (SSW) 2,052 5.9 -14.9°
Maximum altitude 12:32:59 31° 263° (W) 1,146 4.4 -14.2°
Drops below altitude 10° 12:37:01 10° 326° (NW) 2,066 6.0 -13.4°
Sets 12:39:27 0° 336° (NNW) 2,974 6.9 -12.9°
